When you browse on this site, cookies collect data to enhance your experience and personalize the content and advertising you see.
Visit our Privacy Policy to learn more. By continuing to use the site, you agree to this use of cookies and data.
  • In Austria
  • List of Countries
  • For 7 days
  • Water Temperature
  • Weather Map
  • News
  • Weather Widgets
  • user-avatar
    Login

    Hourly Weather Batumi

    Today, 23 January, Thursday

    Time Temperature Precipitation Wind Pressure Humidity
    00:00 +4°C° 0 mm 1 mps 768 mmHg 73%
    01:00 +4°C° 0 mm 1 mps 767 mmHg 73%
    02:00 +4°C° 0 mm 1 mps 767 mmHg 72%
    03:00 +4°C° 0 mm 1 mps 766 mmHg 72%
    04:00 +3°C° 0 mm 2 mps 765 mmHg 73%
    05:00 +4°C° 0 mm 2 mps 765 mmHg 73%
    06:00 +4°C° 0 mm 2 mps 764 mmHg 74%
    07:00 +3°C° 0.1 mm 3 mps 764 mmHg 78%
    08:00 +4°C° 0.1 mm 3 mps 763 mmHg 83%
    09:00 +4°C° 0.1 mm 3 mps 763 mmHg 87%
    10:00 +4°C° 0.3 mm 3 mps 763 mmHg 88%
    11:00 +5°C° 0.3 mm 3 mps 762 mmHg 88%
    12:00 +5°C° 0.3 mm 3 mps 762 mmHg 89%
    13:00 +7°C° 0.3 mm 3 mps 761 mmHg 89%
    14:00 +6°C° 0.3 mm 4 mps 761 mmHg 88%
    15:00 +6°C° 0.3 mm 5 mps 760 mmHg 88%
    16:00 +4°C° 2 mm 6 mps 761 mmHg 91%
    17:00 +4°C° 2 mm 6 mps 761 mmHg 94%
    18:00 +3°C° 2 mm 7 mps 761 mmHg 97%
    19:00 +3°C° 3.3 mm 7 mps 762 mmHg 97%
    20:00 +3°C° 3.3 mm 7 mps 762 mmHg 97%
    21:00 +3°C° 3.3 mm 7 mps 763 mmHg 97%
    22:00 +3°C° 1.9 mm 6 mps 764 mmHg 97%
    23:00 +2°C° 1.9 mm 6 mps 764 mmHg 97%

    Tomorrow, 24 January, Friday

    Time Temperature Precipitation Wind Pressure Humidity
    00:00 +2°C° 1.9 mm 6 mps 765 mmHg 97%
    01:00 +1°C° 1.6 mm 6 mps 766 mmHg 96%
    02:00 +1°C° 1.6 mm 6 mps 766 mmHg 96%
    03:00 +1°C° 1.6 mm 6 mps 767 mmHg 96%
    04:00 +1°C° 1.2 mm 5 mps 767 mmHg 96%
    05:00 0°C° 1.2 mm 5 mps 768 mmHg 96%
    06:00 0°C° 1.2 mm 5 mps 768 mmHg 96%
    07:00 0°C° 1.1 mm 5 mps 769 mmHg 96%
    08:00 0°C° 1.1 mm 5 mps 769 mmHg 96%
    09:00 0°C° 1.1 mm 4 mps 770 mmHg 95%
    10:00 +1°C° 0.7 mm 5 mps 770 mmHg 93%
    11:00 +1°C° 0.7 mm 5 mps 770 mmHg 91%
    12:00 +1°C° 0.7 mm 5 mps 770 mmHg 88%
    13:00 +1°C° 0.7 mm 5 mps 770 mmHg 89%
    14:00 +1°C° 0.7 mm 5 mps 770 mmHg 89%
    15:00 +1°C° 0.7 mm 5 mps 770 mmHg 90%
    16:00 0°C° 0.7 mm 5 mps 771 mmHg 90%
    17:00 -1°C° 0.7 mm 4 mps 772 mmHg 91%
    18:00 -2°C° 0.7 mm 4 mps 773 mmHg 92%
    19:00 -2°C° 0.7 mm 4 mps 774 mmHg 92%
    20:00 -1°C° 0.7 mm 3 mps 774 mmHg 93%
    21:00 -1°C° 0.7 mm 3 mps 775 mmHg 94%
    22:00 -2°C° 0.3 mm 2 mps 776 mmHg 93%
    23:00 -2°C° 0.3 mm 2 mps 776 mmHg 93%

    Day after tomorrow, 25 January, Saturday

    Time Temperature Precipitation Wind Pressure Humidity
    00:00 -2°C° 0.3 mm 2 mps 776 mmHg 92%
    01:00 -3°C° 0.1 mm 2 mps 776 mmHg 86%
    02:00 -3°C° 0.1 mm 2 mps 776 mmHg 79%
    03:00 -4°C° 0.1 mm 2 mps 776 mmHg 73%
    04:00 -5°C° 0 mm 3 mps 776 mmHg 71%
    05:00 -5°C° 0 mm 3 mps 776 mmHg 69%
    06:00 -5°C° 0 mm 3 mps 776 mmHg 66%
    07:00 -4°C° 0 mm 3 mps 776 mmHg 69%
    08:00 -1°C° 0 mm 3 mps 775 mmHg 71%
    09:00 0°C° 0 mm 3 mps 775 mmHg 73%
    10:00 +1°C° 0 mm 3 mps 774 mmHg 75%
    11:00 +4°C° 0 mm 2 mps 774 mmHg 76%
    12:00 +5°C° 0 mm 2 mps 773 mmHg 78%
    13:00 +6°C° 0 mm 2 mps 772 mmHg 80%
    14:00 +6°C° 0 mm 2 mps 771 mmHg 82%
    15:00 +7°C° 0 mm 2 mps 771 mmHg 84%
    16:00 +6°C° 0 mm 2 mps 771 mmHg 80%
    17:00 +5°C° 0 mm 2 mps 771 mmHg 76%
    18:00 +3°C° 0 mm 3 mps 771 mmHg 72%
    19:00 +3°C° 0 mm 3 mps 771 mmHg 69%
    20:00 +2°C° 0 mm 3 mps 771 mmHg 67%
    21:00 +2°C° 0 mm 3 mps 771 mmHg 64%
    22:00 +2°C° 0 mm 3 mps 771 mmHg 64%
    23:00 +2°C° 0 mm 3 mps 771 mmHg 63%

    26 January, Sunday

    Time Temperature Precipitation Wind Pressure Humidity
    00:00 +2°C° 0 mm 3 mps 771 mmHg 63%
    01:00 +2°C° 0 mm 3 mps 771 mmHg 62%
    02:00 +2°C° 0 mm 3 mps 771 mmHg 62%
    03:00 +4°C° 0 mm 2 mps 771 mmHg 62%
    04:00 +4°C° 0 mm 2 mps 771 mmHg 62%
    05:00 +4°C° 0 mm 2 mps 771 mmHg 62%
    06:00 +4°C° 0 mm 2 mps 771 mmHg 63%
    07:00 +4°C° 0 mm 2 mps 771 mmHg 65%
    08:00 +5°C° 0 mm 2 mps 771 mmHg 68%
    09:00 +6°C° 0 mm 2 mps 771 mmHg 70%
    10:00 +7°C° 0 mm 2 mps 771 mmHg 75%
    11:00 +8°C° 0 mm 2 mps 771 mmHg 81%
    12:00 +9°C° 0 mm 2 mps 770 mmHg 86%
    13:00 +9°C° 0 mm 2 mps 770 mmHg 87%
    14:00 +10°C° 0 mm 1 mps 770 mmHg 87%
    15:00 +10°C° 0 mm 1 mps 769 mmHg 88%
    16:00 +9°C° 0 mm 1 mps 770 mmHg 83%
    17:00 +8°C° 0 mm 1 mps 771 mmHg 79%
    18:00 +7°C° 0 mm 1 mps 771 mmHg 74%
    19:00 +7°C° 0 mm 1 mps 771 mmHg 72%
    20:00 +6°C° 0 mm 1 mps 771 mmHg 70%
    21:00 +6°C° 0 mm 1 mps 772 mmHg 68%
    22:00 +4°C° 0 mm 2 mps 772 mmHg 70%
    23:00 +4°C° 0 mm 2 mps 772 mmHg 72%

    27 January, Monday

    Time Temperature Precipitation Wind Pressure Humidity
    00:00 +4°C° 0 mm 2 mps 772 mmHg 74%
    01:00 +5°C° 0 mm 2 mps 772 mmHg 78%
    02:00 +5°C° 0 mm 2 mps 772 mmHg 81%
    03:00 +5°C° 0 mm 2 mps 772 mmHg 85%
    04:00 +5°C° 0 mm 2 mps 772 mmHg 85%
    05:00 +5°C° 0 mm 2 mps 772 mmHg 85%
    06:00 +4°C° 0 mm 2 mps 772 mmHg 85%
    07:00 +5°C° 0 mm 2 mps 773 mmHg 84%
    08:00 +6°C° 0 mm 2 mps 773 mmHg 84%
    09:00 +7°C° 0 mm 2 mps 773 mmHg 83%
    10:00 +7°C° 0 mm 2 mps 772 mmHg 86%
    11:00 +8°C° 0 mm 2 mps 772 mmHg 89%
    12:00 +9°C° 0 mm 3 mps 772 mmHg 91%
    13:00 +9°C° 0 mm 3 mps 771 mmHg 91%
    14:00 +9°C° 0 mm 3 mps 771 mmHg 91%
    15:00 +9°C° 0 mm 3 mps 770 mmHg 91%
    16:00 +9°C° 0 mm 3 mps 770 mmHg 86%
    17:00 +8°C° 0 mm 3 mps 770 mmHg 80%
    18:00 +7°C° 0 mm 3 mps 771 mmHg 74%
    19:00 +7°C° 0 mm 3 mps 771 mmHg 73%
    20:00 +5°C° 0 mm 3 mps 771 mmHg 71%
    21:00 +5°C° 0 mm 3 mps 771 mmHg 70%
    22:00 +5°C° 0 mm 3 mps 771 mmHg 70%
    23:00 +5°C° 0 mm 3 mps 771 mmHg 70%

    28 January, Tuesday

    Time Temperature Precipitation Wind Pressure Humidity
    00:00 +5°C° 0 mm 3 mps 771 mmHg 70%
    01:00 +5°C° 0 mm 3 mps 770 mmHg 69%
    02:00 +5°C° 0 mm 3 mps 770 mmHg 68%
    03:00 +5°C° 0 mm 3 mps 770 mmHg 67%
    04:00 +5°C° 0 mm 3 mps 770 mmHg 66%
    05:00 +5°C° 0 mm 3 mps 770 mmHg 65%
    06:00 +5°C° 0 mm 3 mps 770 mmHg 64%
    07:00 +5°C° 0 mm 3 mps 770 mmHg 65%
    08:00 +7°C° 0 mm 3 mps 770 mmHg 67%
    09:00 +7°C° 0 mm 3 mps 770 mmHg 68%
    10:00 +8°C° 0 mm 2 mps 770 mmHg 74%
    11:00 +9°C° 0 mm 2 mps 769 mmHg 80%
    12:00 +10°C° 0 mm 2 mps 769 mmHg 86%
    13:00 +10°C° 0 mm 2 mps 768 mmHg 87%
    14:00 +11°C° 0 mm 1 mps 768 mmHg 88%
    15:00 +12°C° 0 mm 1 mps 767 mmHg 89%
    16:00 +11°C° 0 mm 1 mps 767 mmHg 83%
    17:00 +10°C° 0 mm 1 mps 768 mmHg 76%
    18:00 +9°C° 0 mm 1 mps 768 mmHg 70%
    19:00 +9°C° 0 mm 1 mps 768 mmHg 69%
    20:00 +9°C° 0 mm 1 mps 768 mmHg 68%
    21:00 +9°C° 0 mm 1 mps 769 mmHg 66%
    22:00 +9°C° 0 mm 1 mps 769 mmHg 67%
    23:00 +9°C° 0 mm 1 mps 769 mmHg 69%
    Show more